Weather History for KMRH - February, 2011

Change the Weather History Date:

Saturday, February 19, 2011

  Actual Average Record
Temperature  
Mean Temperature 61 °F -  
Max Temperature 70 °F 58 °F - (-1)
Min Temperature 52 °F 38 °F - (-1)
Degree Days  
Heating Degree Days 4    
Growing Degree Days 11 (Base 50)    
Moisture  
Dew Point 31 °F    
Average Humidity 40    
Maximum Humidity 93    
Minimum Humidity 14    
Precipitation  
Precipitation 0.00 in - - ()
Sea Level Pressure  
Sea Level Pressure 30.07 in    
Wind  
Wind Speed 10 mph (NW)    
Max Wind Speed 23 mph    
Max Gust Speed 30 mph    
Visibility 10 miles    
Events      
Averages and records for this station are not official NWS values.
T = Trace of Precipitation, MM = Missing Value Source: NWS Daily Summary

Daily Weather History Graph

Daily Weather History Graph

Search for Another Location

Airport or City:

Trip Planner

Search our weather history database for the weather conditions in past years. The results will help you decide how hot, cold, wet, or windy it might be!

Date:

Astronomy

Feb. 19, 2011 Rise Set
Actual Time 6:48 AM EST 5:53 PM EST
Civil Twilight 6:22 AM EST 6:18 PM EST
Nautical Twilight 5:53 AM EST 6:48 PM EST
Astronomical Twilight 5:23 AM EST 7:17 PM EST
Moon 7:49 PM EST (2/19) 7:15 AM EST (2/19)
Length of Visible Light 11h 56m
Length of Day
11h 05m
Full, 97% of the Moon is Illuminated
Feb 19
Full
Feb 24
Last Quarter
Mar 4
New
Mar 12
First Quarter
Mar 19
Full

Hourly Weather History & Observations

Time (EST) Temp. Dew Point Humidity Pressure Visibility Wind Dir Wind Speed Gust Speed Precip Events Conditions
1:56 AM 52.0 °F 50.0 °F 93% 30.02 in 6.0 mi SW 3.5 mph - N/A   Clear
2:56 AM 54.0 °F 50.0 °F 86% 30.01 in 7.0 mi Calm Calm - N/A   Clear
3:56 AM 52.0 °F 48.9 °F 89% 30.03 in 9.0 mi WNW 5.8 mph - N/A   Clear
4:56 AM 55.9 °F 50.0 °F 80% 30.05 in 10.0 mi NW 9.2 mph - N/A   Clear
5:56 AM 57.0 °F 48.0 °F 72% 30.06 in 10.0 mi NW 8.1 mph - N/A   Clear
6:56 AM 57.9 °F 42.1 °F 56% 30.09 in 10.0 mi NNW 12.7 mph - N/A   Scattered Clouds
7:56 AM 57.9 °F 39.9 °F 51% 30.12 in 10.0 mi NNW 9.2 mph - N/A   Clear
8:56 AM 61.0 °F 33.1 °F 35% 30.13 in 10.0 mi NW 15.0 mph - N/A   Clear
9:56 AM 64.0 °F 23.0 °F 21% 30.13 in 10.0 mi NNW 23.0 mph 27.6 mph N/A   Clear
10:56 AM 64.9 °F 18.0 °F 16% 30.12 in 10.0 mi NNW 20.7 mph 29.9 mph N/A   Clear
11:56 AM 68.0 °F 21.9 °F 17% 30.10 in 10.0 mi NW 15.0 mph - N/A   Clear
12:56 PM 69.1 °F 21.0 °F 16% 30.06 in 10.0 mi NW 16.1 mph 25.3 mph N/A   Clear
1:56 PM 70.0 °F 19.9 °F 15% 30.04 in 10.0 mi West 18.4 mph 27.6 mph N/A   Clear
2:56 PM 70.0 °F 19.0 °F 14% 30.02 in 10.0 mi WNW 19.6 mph 28.8 mph N/A   Clear
3:56 PM 69.1 °F 21.0 °F 16% 30.02 in 10.0 mi NW 20.7 mph 28.8 mph N/A   Clear
4:56 PM 66.9 °F 23.0 °F 19% 30.03 in 10.0 mi WNW 15.0 mph - N/A   Clear
5:56 PM 62.1 °F 28.0 °F 28% 30.04 in 10.0 mi WNW 13.8 mph - N/A   Clear
6:56 PM 59.0 °F 27.0 °F 29% 30.06 in 10.0 mi WNW 11.5 mph - N/A   Clear
7:56 PM 57.0 °F 24.1 °F 28% 30.08 in 10.0 mi West 9.2 mph - N/A   Clear
8:56 PM 57.0 °F 24.1 °F 28% 30.09 in 10.0 mi WNW 10.4 mph - N/A   Clear
9:56 PM 54.0 °F 27.0 °F 35% 30.11 in 10.0 mi WNW 10.4 mph - N/A   Clear
10:56 PM 55.0 °F 24.1 °F 30% 30.14 in 10.0 mi NW 11.5 mph - N/A   Clear
11:56 PM 52.0 °F 26.1 °F 37% 30.17 in 10.0 mi NNW 9.2 mph - N/A   Clear